Tracking 31027 objects as of 19-Jul-2025
HD Live streaming from Space Station
objects crossing your sky now

SL-14 DEB

Track SL-14 DEB now!
10-day predictions


NORAD ID: 26007
Int'l Code: 1991-068S
Perigee: 1,469.7 km
Apogee: 1,487.3 km
Inclination: 82.7 °
Period: 115.4 minutes
Semi major axis: 7849 km
RCS: 0.1171 m2 (medium)
Launch date: September 28, 1991
Source: Commonwealth of Independent States (former USSR) (CIS)
Launch site: PLESETSK MISSILE AND SPACE COMPLEX (PKMTR)

Note: This is SATELLITE DEBRIS
Your satellite tracking list
COSMOS 830
Track 1 satellite(s)




NASA's NSSDC Master Catalog

Two Line Element Set (TLE):
1 26007U 91068S   25199.47218227  .00000002  00000-0 -58352-4 0  9998
2 26007  82.6979  97.7162 0011179 190.5860 356.3086 12.48355931174293
Source of the keplerian elements: AFSPC